TimeEST,TemperatureF,Dew PointF,Humidity,Sea Level PressureIn,VisibilityMPH,Wind Direction,Wind SpeedMPH,Gust SpeedMPH,PrecipitationIn,Events,Conditions,WindDirDegrees,DateUTC
12:53 AM,64.0,63.0,96,30.07,10.0,Calm,Calm,-,N/A,,Clear,0,2013-01-17 05:53:00
1:13 AM,62.6,62.6,100,30.06,1.5,Calm,Calm,-,N/A,,Clear,0,2013-01-17 06:13:00
1:17 AM,62.6,62.6,100,30.06,0.8,Calm,Calm,-,N/A,,Mist,0,2013-01-17 06:17:00
1:31 AM,60.8,60.8,100,30.06,0.8,ENE,3.5,-,N/A,,Mist,70,2013-01-17 06:31:00
1:43 AM,60.8,60.8,100,30.06,1.2,Calm,Calm,-,N/A,,Partly Cloudy,0,2013-01-17 06:43:00
1:53 AM,61.0,60.1,97,30.06,1.8,Calm,Calm,-,N/A,,Clear,0,2013-01-17 06:53:00
1:55 AM,60.8,60.8,100,30.06,3.0,Calm,Calm,-,N/A,,Clear,0,2013-01-17 06:55:00
2:02 AM,60.8,60.8,100,30.06,2.0,Calm,Calm,-,N/A,,Clear,0,2013-01-17 07:02:00
2:12 AM,60.8,60.8,100,30.06,10.0,Calm,Calm,-,N/A,,Clear,0,2013-01-17 07:12:00
2:18 AM,62.6,60.8,94,30.06,1.2,Calm,Calm,-,N/A,,Partly Cloudy,0,2013-01-17 07:18:00
2:20 AM,62.6,60.8,94,30.06,0.8,Calm,Calm,-,N/A,,Mist,0,2013-01-17 07:20:00
2:53 AM,62.1,60.1,93,30.06,0.8,Calm,Calm,-,N/A,,Clear,0,2013-01-17 07:53:00
3:01 AM,62.6,62.6,100,30.06,1.0,Calm,Calm,-,N/A,,Clear,0,2013-01-17 08:01:00
3:08 AM,62.6,62.6,100,30.06,0.5,Calm,Calm,-,N/A,Fog,Fog,0,2013-01-17 08:08:00
3:17 AM,60.8,60.8,100,30.06,0.5,Calm,Calm,-,N/A,Fog,Fog,0,2013-01-17 08:17:00
3:24 AM,60.8,60.8,100,30.06,0.5,Calm,Calm,-,N/A,Fog,Fog,0,2013-01-17 08:24:00
3:32 AM,60.8,59.0,94,30.06,0.8,Calm,Calm,-,N/A,,Mist,0,2013-01-17 08:32:00
3:46 AM,60.8,59.0,94,30.06,0.5,Calm,Calm,-,N/A,Fog,Fog,0,2013-01-17 08:46:00
3:53 AM,61.0,61.0,100,30.06,0.8,Calm,Calm,-,N/A,,Mist,0,2013-01-17 08:53:00
4:17 AM,60.8,60.8,100,30.05,1.2,Calm,Calm,-,N/A,,Partly Cloudy,0,2013-01-17 09:17:00
4:28 AM,60.8,60.8,100,30.05,2.5,Calm,Calm,-,N/A,,Partly Cloudy,0,2013-01-17 09:28:00
4:35 AM,59.0,59.0,100,30.05,9.0,Calm,Calm,-,N/A,,Clear,0,2013-01-17 09:35:00
4:53 AM,59.0,57.9,96,30.05,9.0,Calm,Calm,-,N/A,,Clear,0,2013-01-17 09:53:00
5:27 AM,59.0,57.2,94,30.05,1.8,ESE,4.6,-,N/A,,Clear,120,2013-01-17 10:27:00
5:32 AM,59.0,59.0,100,30.05,3.0,SE,3.5,-,N/A,,Clear,130,2013-01-17 10:32:00
5:53 AM,60.1,57.9,93,30.06,10.0,Calm,Calm,-,N/A,,Clear,0,2013-01-17 10:53:00
6:53 AM,61.0,60.1,97,30.07,7.0,SE,3.5,-,N/A,,Clear,130,2013-01-17 11:53:00
7:27 AM,60.8,60.8,100,30.07,2.0,SE,3.5,-,0.01,,Clear,140,2013-01-17 12:27:00
7:36 AM,60.8,60.8,100,30.07,6.0,Calm,Calm,-,0.01,,Clear,0,2013-01-17 12:36:00
7:53 AM,63.0,62.1,97,30.08,7.0,SE,3.5,-,0.01,,Clear,140,2013-01-17 12:53:00
8:53 AM,69.1,66.9,93,30.09,10.0,SSE,5.8,-,N/A,,Clear,160,2013-01-17 13:53:00
9:53 AM,75.9,69.1,79,30.10,10.0,SW,10.4,-,N/A,,Partly Cloudy,220,2013-01-17 14:53:00
10:53 AM,79.0,66.9,66,30.09,10.0,SW,13.8,-,N/A,,Scattered Clouds,230,2013-01-17 15:53:00
11:53 AM,79.0,66.9,66,30.08,10.0,WSW,16.1,20.7,N/A,,Mostly Cloudy,250,2013-01-17 16:53:00
12:53 PM,79.0,66.9,66,30.05,10.0,SW,18.4,26.5,N/A,,Partly Cloudy,230,2013-01-17 17:53:00
1:20 PM,77.0,66.2,69,30.03,10.0,WNW,15.0,-,N/A,,Mostly Cloudy,300,2013-01-17 18:20:00
1:53 PM,75.9,64.9,69,30.03,10.0,WNW,19.6,24.2,N/A,,Overcast,300,2013-01-17 18:53:00
2:53 PM,69.1,62.1,78,30.05,10.0,NW,19.6,24.2,N/A,,Overcast,320,2013-01-17 19:53:00
3:53 PM,64.0,57.0,78,30.09,10.0,NW,20.7,31.1,N/A,,Overcast,310,2013-01-17 20:53:00
4:07 PM,62.6,57.2,82,30.09,10.0,NNW,24.2,33.4,N/A,,Overcast,330,2013-01-17 21:07:00
4:14 PM,62.6,57.2,82,30.09,9.0,NW,20.7,33.4,N/A,,Overcast,320,2013-01-17 21:14:00
4:53 PM,63.0,54.0,72,30.11,10.0,NNW,18.4,27.6,N/A,,Overcast,330,2013-01-17 21:53:00
5:21 PM,64.4,53.6,68,30.11,10.0,NW,17.3,28.8,N/A,,Overcast,310,2013-01-17 22:21:00
5:53 PM,64.0,52.0,65,30.12,10.0,NW,15.0,20.7,N/A,,Overcast,320,2013-01-17 22:53:00
6:53 PM,63.0,51.1,65,30.14,10.0,NW,12.7,19.6,N/A,,Overcast,320,2013-01-17 23:53:00
7:53 PM,62.1,48.0,60,30.15,10.0,NW,16.1,21.9,N/A,,Overcast,320,2013-01-18 00:53:00
8:53 PM,62.1,48.0,60,30.16,10.0,NW,11.5,-,N/A,,Overcast,310,2013-01-18 01:53:00
9:53 PM,61.0,48.9,64,30.17,10.0,NW,16.1,20.7,N/A,,Overcast,310,2013-01-18 02:53:00
10:53 PM,60.1,48.9,67,30.17,10.0,NW,9.2,-,N/A,,Overcast,320,2013-01-18 03:53:00
11:53 PM,60.1,48.0,64,30.16,10.0,NW,18.4,23.0,N/A,,Overcast,320,2013-01-18 04:53:00